Location: Atlantique
(40.6418°N, 73.1707°W)
Time: 15:28:43
(UTC+00:00)

Daily predictions for brighter satellites

Satellite Brightness Start Highest point End
(mag) Time Altitude Azimuth Time Altitude Azimuth Time Altitude Azimuth
Cosmos 841 Rocket 3.5 21:49:09 10° S 21:54:15 64° ESE 21:59:21 10° NNE
Meteor 1-25 Rocket 4.2 21:50:34 10° N 21:56:10 74° E 22:01:47 10° SSE
Cosmos 2278 4.4 21:51:29 10° N 21:56:30 31° ENE 22:01:28 10° ESE
Cosmos 1500 3.8 21:53:15 10° NNE 21:56:38 32° ENE 22:00:01 10° SE
CZ-2C R/B 2.9 21:52:48 10° SSE 21:57:42 89° W 22:02:30 10° NNW
Cosmos 1833 Rocket 3.3 21:52:16 10° SW 21:57:47 60° WNW 22:03:23 10° NNE
Cosmos 1634 Rocket 4.1 21:54:39 10° S 22:00:51 60° E 22:07:03 10° NNE
Cosmos 1782 2.9 21:57:17 10° S 22:01:12 56° E 22:05:06 10° NNE
H-2A R/B 2.8 21:57:20 10° SE 22:01:42 29° ENE 22:06:01 10° N
USA 267 3.4 21:55:27 10° NE 22:01:59 76° NW 22:08:29 10° WSW
CZ-2D R/B 4.3 21:59:19 10° SE 22:02:29 25° ENE 22:05:39 10° NNE
Cosmos 1937 Rocket 3.5 21:58:52 10° NNW 22:04:13 74° ENE 22:09:30 10° SSE
Cosmos 2026 Rocket 4.0 21:59:49 10° N 22:05:53 62° E 22:11:51 10° SSE
Cosmos 1500 Rocket 4.1 22:02:07 10° NNW 22:06:30 64° W 22:10:49 10° S
COSMOS 2406 3.7 22:02:21 10° SSW 22:08:02 66° WNW 22:13:46 10° NNE
Cosmos 372 Rocket 4.2 22:03:13 10° N 22:08:19 50° ENE 22:13:25 10° SE
Cosmos 2195 Rocket 4.5 22:03:50 10° N 22:10:02 80° E 22:16:16 10° S
Sich 1 3.0 22:06:31 10° N 22:10:47 62° E 22:15:03 10° SSE
CZ-2C R/B 3.4 22:10:04 10° NE 22:14:32 29° E 22:18:59 10° SSE
Cosmos 1809 Rocket 4.4 22:10:42 10° N 22:16:49 84° E 22:22:53 10° S
Cosmos 1805 Rocket 3.6 22:14:19 10° N 22:18:40 82° W 22:22:59 10° S
USA 229 DEB 4.4 22:13:49 10° NW 22:21:13 68° WSW 22:28:59 10° SSE
USA 229 4.4 22:13:54 10° NW 22:21:18 68° WSW 22:29:05 10° SSE
Meteor 2-21 Rocket 4.5 22:16:28 10° N 22:22:27 57° E 22:28:23 10° SSE
NOAA 6 4.0 22:18:12 10° SSE 22:23:20 87° ENE 22:28:30 10° NNW
Lacrosse 5 rocket 2.7 22:21:23 10° NNW 22:24:26 21° NNE 22:26:07 16° ENE
CZ-4B R/B 3.7 22:19:35 10° SE 22:24:28 36° ENE 22:29:17 10° N
Cosmos 1666 3.0 22:22:12 10° N 22:25:43 39° ENE 22:29:12 10° SSE
PAYLOAD B 4.3 22:25:59 10° SSE 22:31:29 61° ENE 22:37:00 10° N
MOS 1-B Rocket 4.2 22:25:46 10° NNE 22:31:49 62° ESE 22:38:49 10° S
SL-24 R/B - RUBIN 2 3.4 22:28:08 10° NNW 22:32:37 84° ENE 22:36:54 10° SSE
USA 234 3.3 22:27:19 10° ESE 22:33:42 58° NE 22:40:05 10° NW
PSLV R/B 3.5 22:34:49 10° SSE 22:38:29 80° ENE 22:42:14 10° N
Cosmos 2360 Rocket 3.9 22:40:39 10° NNE 22:42:46 14° NE 22:42:46 14° NE
Cosmos 921 Rocket 3.1 22:41:42 10° S 22:45:44 49° ESE 22:48:25 20° NE
Cosmos 1812 3.2 22:45:54 10° SSW 22:49:42 61° W 22:53:32 10° N
SL-08 RB Rocket 4.3 22:48:30 10° SE 22:52:38 33° ENE 22:56:46 10° N
CZ-2C R/B 2.6 22:51:15 10° SW 22:55:02 31° SSE 22:56:54 21° SE
COSMO-SKYMED 1 2.5 22:51:33 10° NNE 22:55:50 70° ESE 23:00:08 10° S
USA 305 4.5 22:53:23 10° NNW 22:56:28 19° NNE 22:56:39 19° NNE
Cosmos 1570 Rocket 4.3 22:52:18 10° SSW 22:57:30 66° WNW 23:02:43 10° NNE
Meteor 1-10 Rocket 4.3 22:51:55 10° S 22:57:35 60° E 23:03:10 10° NNE
CZ-4C R/B 4.1 22:59:06 26° SE 22:59:06 26° SE 23:01:10 10° SSE
COSMOS 2455 4.1 22:54:26 10° WSW 22:59:58 37° NW 23:05:32 10° NNE
Cosmos 1633 Rocket 3.0 22:55:45 10° N 23:00:09 85° W 23:04:32 10° S
CZ-4 R/B 4.5 22:56:47 10° SSE 23:00:47 53° ENE 23:04:50 10° N
Meteor 1-11 Rocket 4.0 22:56:27 10° N 23:01:50 43° ENE 23:07:16 10° SE
Cosmos 1151 Rocket 3.7 22:57:56 10° SSW 23:02:09 54° W 23:06:26 10° N
Helios 1B 4.4 22:59:18 13° NNE 23:03:13 82° ESE 23:07:33 10° SSW
X-37B 0.8 23:00:44 10° SW 23:03:24 49° SSE 23:03:24 49° SSE
Cosmos 2298 Rocket 4.1 23:00:00 10° N 23:05:12 52° ENE 23:10:22 10° SE
Cosmos 2322 Rocket 2.9 23:00:37 10° N 23:05:40 32° ENE 23:05:58 31° ENE
Cosmos 1980 Rocket 3.1 23:04:41 10° NW 23:10:08 50° WSW 23:15:31 10° S
Landsat 5 3.2 23:14:49 36° NNE 23:16:22 82° E 23:20:18 10° S
Feng Yun 1-1 Rocket 4.4 23:11:30 10° SSE 23:17:16 56° ENE 23:22:59 10° N
DMSP B5D2-2 4.3 23:17:37 43° E 23:18:12 44° E 23:23:11 10° S
Cosmos 836 Rocket 4.5 23:13:26 10° S 23:18:38 61° ESE 23:20:21 40° NE
Cosmos 1818 3.4 23:13:22 10° NNW 23:18:52 77° ENE 23:22:57 18° SE
Meteor 2-15 Rocket 4.3 23:13:16 10° S 23:19:22 75° E 23:25:29 10° NNE
ISS -2.9 23:16:27 10° WNW 23:19:43 48° SW 23:20:29 39° S
CZ-4C R/B 3.2 23:14:06 10° NW 23:21:39 77° WSW 23:30:15 10° SSE
Okean O Rocket 1.7 23:20:23 10° S 23:24:49 78° WSW 23:29:18 10° NNW
Cosmos 2082 Rocket 4.0 23:20:02 10° WSW 23:24:50 27° NW 23:29:38 10° N
SL-16 R/B 2.2 23:19:32 10° NNW 23:25:09 58° ENE 23:27:08 38° ESE
ARGOS 3.3 23:25:17 10° S 23:30:41 73° WSW 23:36:06 10° NNW
Cosmos 1470 Rocket 3.9 23:27:04 10° NNW 23:31:31 67° W 23:35:56 10° S
Cosmos 44 Rocket 3.2 23:27:58 10° NW 23:32:51 81° WSW 23:34:46 36° SSE
Cosmos 2266 Rocket 4.0 23:27:20 10° N 23:33:46 89° W 23:40:11 10° S
Aureole 3 Rocket 3.1 23:32:23 10° S 23:36:28 77° E 23:37:00 68° NE
Cosmos 1867 3.4 23:34:47 10° SSW 23:40:13 79° ESE 23:40:49 69° ENE
Cosmos 2333 Rocket 4.4 23:36:42 10° N 23:37:11 12° N 23:37:11 12° N
H-2A R/B 3.7 23:36:25 10° SSW 23:41:02 33° W 23:45:34 10° NNW
Cosmos 2150 Rocket 4.0 23:36:21 10° NNW 23:41:33 81° WSW 23:46:48 10° SSE
USA 32 4.1 23:43:41 10° S 23:48:53 75° W 23:51:15 33° N
Spot 2 4.4 23:44:00 10° SSE 23:49:08 87° ENE 23:54:17 10° NNW
Cosmos 1125 Rocket 3.7 23:47:45 10° NNW 23:52:59 69° WSW 23:56:50 19° S
CZ-2C R/B 4.1 23:50:13 10° N 23:54:49 33° WNW 23:59:24 10° SW
